Вернуться в каталог

SCOUT A DEB

АктивенPO
NORAD 31407·DEBRIS·🇺🇸 United States

Запущен May 19, 1966 с Vandenberg Space Force Base

Loading…

Ближайшие Пролёты (ближайшие 24 часа)

TLE

СвежийSource: Space-Track

Эпоха: Sep 13, 2026, 05:52 UTC

1 31407U 66041H   26256.24450090  .00001432  00000-0  50999-3 0  9992
2 31407  90.1975  76.9835 0053377 317.8851  41.8250 14.33156554512773

Отслеживайте SCOUT A DEB в реальном времени с AllMySat

Download on the App Store